"Sample Date","Sample Time","Sample Value","Units","Flow Rate","Sample Interval","Number Channels","Micron Size 0","Counts/Channel 0","Micron Size 1","Counts/Channel 1","Micron Size 2","Counts/Channel 2","Micron Size 3","Counts/Channel 3","Micron Size 4","Counts/Channel 4","Micron Size 5","Counts/Channel 5","Micron Size 6","Counts/Channel 6","Micron Size 7","Counts/Channel 7","Micron Size 8","Counts/Channel 8","Micron Size 9","Counts/Channel 9","Micron Size 10","Counts/Channel 10","Micron Size 11","Counts/Channel 11","Micron Size 12","Counts/Channel 12","Micron Size 13","Counts/Channel 13","Micron Size 14","Counts/Channel 14","Micron Size 15","Counts/Channel 15","Micron Size 16","Counts/Channel 16","Micron Size 17","Counts/Channel 17","Micron Size 18","Counts/Channel 18","Micron Size 19","Counts/Channel 19","Micron Size 20","Counts/Channel 20","Micron Size 21","Counts/Channel 21","Micron Size 22","Counts/Channel 22","Micron Size 23","Counts/Channel 23","Micron Size 24","Counts/Channel 24","Micron Size 25","Counts/Channel 25","Micron Size 26","Counts/Channel 26","Micron Size 27","Counts/Channel 27","Micron Size 28","Counts/Channel 28","Micron Size 29","Counts/Channel 29","Micron Size 30","Counts/Channel 30","Micron Size 31","Counts/Channel 31"
"04/04/08","07:00:04",87851.000,"cc",28309.908,6.00,6,0.100,76307.000,0.200,7090.000,0.300,1895.000,0.500,1887.000,1.000,672.000,5.000,0
"04/04/08","07:00:10",86077.000,"cc",28265.885,6.00,6,0.100,74837.000,0.200,6908.000,0.300,1885.000,0.500,1812.000,1.000,635.000,5.000,0
"04/04/08","07:00:16",167161.000,"cc",28259.779,6.00,6,0.100,148869.000,0.200,13589.000,0.300,2165.000,0.500,1858.000,1.000,680.000,5.000,0
"04/04/08","07:00:22",187234.000,"cc",28305.316,6.00,6,0.100,166919.000,0.200,15431.000,0.300,2234.000,0.500,2016.000,1.000,634.000,5.000,0
"04/04/08","07:00:28",166838.000,"cc",28333.451,6.00,6,0.100,148347.000,0.200,13654.000,0.300,2226.000,0.500,1981.000,1.000,630.000,5.000,0
"04/04/08","07:00:34",147293.000,"cc",28289.205,6.00,6,0.100,130835.000,0.200,11917.000,0.300,2113.000,0.500,1852.000,1.000,576.000,5.000,0
"04/04/08","07:00:40",125681.000,"cc",28292.272,6.00,6,0.100,111096.000,0.200,10204.000,0.300,1932.000,0.500,1844.000,1.000,605.000,5.000,0
"04/04/08","07:00:46",109828.000,"cc",28380.219,6.00,6,0.100,96760.000,0.200,8855.000,0.300,1828.000,0.500,1777.000,1.000,608.000,5.000,0
"04/04/08","07:00:52",171358.000,"cc",28346.088,6.00,6,0.100,152180.000,0.200,14022.000,0.300,2338.000,0.500,2082.000,1.000,736.000,5.000,0
"04/04/08","07:00:58",89552.000,"cc",28373.834,6.00,6,0.100,77571.000,0.200,7690.000,0.300,1873.000,0.500,1846.000,1.000,572.000,5.000,0
"04/04/08","07:01:04",139195.000,"cc",28283.297,6.00,6,0.100,123337.000,0.200,11121.000,0.300,2169.000,0.500,1926.000,1.000,642.000,5.000,0
"04/04/08","07:01:10",98224.000,"cc",28324.264,6.00,6,0.100,85915.000,0.200,7941.000,0.300,1912.000,0.500,1870.000,1.000,586.000,5.000,0
"04/04/08","07:01:16",141266.000,"cc",28273.627,6.00,6,0.100,124996.000,0.200,11526.000,0.300,2115.000,0.500,1962.000,1.000,667.000,5.000,0
"04/04/08","07:01:22",66121.000,"cc",28327.523,6.00,6,0.100,56446.000,0.200,5531.000,0.300,1758.000,0.500,1822.000,1.000,564.000,5.000,0
"04/04/08","07:01:28",123386.000,"cc",28311.639,6.00,6,0.100,108876.000,0.200,10005.000,0.300,1951.000,0.500,1932.000,1.000,622.000,5.000,0
"04/04/08","07:01:34",100449.000,"cc",28281.979,6.00,6,0.100,88130.000,0.200,8130.000,0.300,1894.000,0.500,1714.000,1.000,581.000,5.000,0
"04/04/08","07:01:40",170552.000,"cc",28326.932,6.00,6,0.100,150583.000,0.200,15503.000,0.300,2124.000,0.500,1751.000,1.000,591.000,5.000,0
"04/04/08","07:01:46",205660.000,"cc",28300.428,6.00,6,0.100,183992.000,0.200,17071.000,0.300,2196.000,0.500,1801.000,1.000,600.000,5.000,0
"04/04/08","07:01:52",303592.000,"cc",28312.596,6.00,6,0.100,271184.000,0.200,27178.000,0.300,2678.000,0.500,1910.000,1.000,642.000,5.000,0
"04/04/08","07:01:58",256313.000,"cc",28315.830,6.00,6,0.100,229604.000,0.200,21817.000,0.300,2414.000,0.500,1926.000,1.000,552.000,5.000,0
"04/04/08","07:02:04",187820.000,"cc",28285.775,6.00,6,0.100,168258.000,0.200,14871.000,0.300,2155.000,0.500,1941.000,1.000,595.000,5.000,0
"04/04/08","07:02:10",204433.000,"cc",28333.754,6.00,6,0.100,182347.000,0.200,16913.000,0.300,2426.000,0.500,2058.000,1.000,689.000,5.000,0
"04/04/08","07:02:16",175604.000,"cc",28358.906,6.00,6,0.100,156585.000,0.200,14248.000,0.300,2226.000,0.500,1918.000,1.000,627.000,5.000,0
"04/04/08","07:02:22",238731.000,"cc",28312.465,6.00,6,0.100,213285.000,0.200,20439.000,0.300,2438.000,0.500,1940.000,1.000,629.000,5.000,0
"04/04/08","07:02:28",274765.000,"cc",28287.106,6.00,6,0.100,245596.000,0.200,23750.000,0.300,2727.000,0.500,2021.000,1.000,671.000,5.000,0
"04/04/08","07:02:34",211316.000,"cc",28260.045,6.00,6,0.100,189157.000,0.200,17253.000,0.300,2354.000,0.500,1912.000,1.000,640.000,5.000,0
"04/04/08","07:02:40",158823.000,"cc",28341.523,6.00,6,0.100,141360.000,0.200,12716.000,0.300,2120.000,0.500,1943.000,1.000,684.000,5.000,0
"04/04/08","07:02:46",107322.000,"cc",28369.031,6.00,6,0.100,94393.000,0.200,8672.000,0.300,1942.000,0.500,1719.000,1.000,596.000,5.000,0
"04/04/08","07:02:52",145749.000,"cc",28316.699,6.00,6,0.100,129736.000,0.200,11549.000,0.300,2057.000,0.500,1786.000,1.000,621.000,5.000,0
"04/04/08","07:02:58",136554.000,"cc",28311.566,6.00,6,0.100,120590.000,0.200,11401.000,0.300,2102.000,0.500,1839.000,1.000,622.000,5.000,0
"04/04/08","07:03:04",129021.000,"cc",28296.049,6.00,6,0.100,113400.000,0.200,10665.000,0.300,2227.000,0.500,2033.000,1.000,696.000,5.000,0
"04/04/08","07:03:10",198233.000,"cc",28307.813,6.00,6,0.100,176752.000,0.200,16774.000,0.300,2211.000,0.500,1891.000,1.000,605.000,5.000,0
"04/04/08","07:03:16",164062.000,"cc",28344.568,6.00,6,0.100,146327.000,0.200,13101.000,0.300,2157.000,0.500,1895.000,1.000,582.000,5.000,0
"04/04/08","07:03:22",150448.000,"cc",28297.035,6.00,6,0.100,133169.000,0.200,12419.000,0.300,2218.000,0.500,1978.000,1.000,664.000,5.000,0
"04/04/08","07:03:28",128286.000,"cc",28313.504,6.00,6,0.100,113251.000,0.200,10252.000,0.300,2199.000,0.500,1919.000,1.000,665.000,5.000,0
"04/04/08","07:03:34",99927.000,"cc",28347.506,6.00,6,0.100,87550.000,0.200,7966.000,0.300,1927.000,0.500,1863.000,1.000,621.000,5.000,0
"04/04/08","07:03:40",156724.000,"cc",28302.283,6.00,6,0.100,139646.000,0.200,12366.000,0.300,2155.000,0.500,1909.000,1.000,648.000,5.000,0
"04/04/08","07:03:46",81657.000,"cc",28239.244,6.00,6,0.100,70717.000,0.200,6714.000,0.300,1850.000,0.500,1731.000,1.000,645.000,5.000,0
"04/04/08","07:03:52",61188.000,"cc",28395.768,6.00,6,0.100,51879.000,0.200,5220.000,0.300,1809.000,0.500,1717.000,1.000,563.000,5.000,0
"04/04/08","07:03:58",113213.000,"cc",28299.086,6.00,6,0.100,99513.000,0.200,9144.000,0.300,2020.000,0.500,1857.000,1.000,679.000,5.000,0
"04/04/08","07:04:04",115626.000,"cc",28331.023,6.00,6,0.100,101607.000,0.200,9260.000,0.300,2086.000,0.500,2026.000,1.000,647.000,5.000,0
"04/04/08","07:04:10",85751.000,"cc",28297.076,6.00,6,0.100,74127.000,0.200,7147.000,0.300,1937.000,0.500,1885.000,1.000,655.000,5.000,0
"04/04/08","07:04:16",100073.000,"cc",28280.404,6.00,6,0.100,87320.000,0.200,8074.000,0.300,1996.000,0.500,2019.000,1.000,664.000,5.000,0
"04/04/08","07:04:22",89924.000,"cc",28276.303,6.00,6,0.100,77916.000,0.200,7470.000,0.300,2008.000,0.500,1891.000,1.000,639.000,5.000,0
"04/04/08","07:04:28",66059.000,"cc",28298.699,6.00,6,0.100,56331.000,0.200,5570.000,0.300,1739.000,0.500,1834.000,1.000,585.000,5.000,0
"04/04/08","07:04:34",70598.000,"cc",28329.967,6.00,6,0.100,60627.000,0.200,5882.000,0.300,1811.000,0.500,1697.000,1.000,581.000,5.000,0
"04/04/08","07:04:40",238422.000,"cc",28320.547,6.00,6,0.100,212543.000,0.200,21071.000,0.300,2326.000,0.500,1888.000,1.000,594.000,5.000,0
"04/04/08","07:04:46",281360.000,"cc",28327.104,6.00,6,0.100,252000.000,0.200,24227.000,0.300,2630.000,0.500,1904.000,1.000,599.000,5.000,0
"04/04/08","07:04:52",225853.000,"cc",28349.197,6.00,6,0.100,201863.000,0.200,18911.000,0.300,2515.000,0.500,1924.000,1.000,640.000,5.000,0
"04/04/08","07:04:58",205621.000,"cc",28340.877,6.00,6,0.100,183917.000,0.200,16907.000,0.300,2212.000,0.500,1926.000,1.000,659.000,5.000,0
"04/04/08","07:05:04",156218.000,"cc",28370.662,6.00,6,0.100,139207.000,0.200,12657.000,0.300,2058.000,0.500,1731.000,1.000,565.000,5.000,0
"04/04/08","07:05:10",118560.000,"cc",28373.656,6.00,6,0.100,105102.000,0.200,9283.000,0.300,1872.000,0.500,1746.000,1.000,557.000,5.000,0
"04/04/08","07:05:16",106785.000,"cc",28253.707,6.00,6,0.100,94183.000,0.200,8485.000,0.300,1832.000,0.500,1731.000,1.000,554.000,5.000,0
"04/04/08","07:05:22",156166.000,"cc",28287.273,6.00,6,0.100,139160.000,0.200,12453.000,0.300,2069.000,0.500,1902.000,1.000,582.000,5.000,0
"04/04/08","07:05:28",158681.000,"cc",28287.699,6.00,6,0.100,141548.000,0.200,12572.000,0.300,2098.000,0.500,1863.000,1.000,600.000,5.000,0
"04/04/08","07:05:34",137678.000,"cc",28327.090,6.00,6,0.100,122213.000,0.200,10923.000,0.300,1941.000,0.500,2025.000,1.000,576.000,5.000,0
"04/04/08","07:05:40",123942.000,"cc",28377.461,6.00,6,0.100,109913.000,0.200,9686.000,0.300,1931.000,0.500,1814.000,1.000,598.000,5.000,0
"04/04/08","07:05:46",179111.000,"cc",28268.143,6.00,6,0.100,160247.000,0.200,14190.000,0.300,2138.000,0.500,1864.000,1.000,672.000,5.000,0
"04/04/08","07:05:52",157928.000,"cc",28312.234,6.00,6,0.100,140889.000,0.200,12445.000,0.300,2116.000,0.500,1835.000,1.000,643.000,5.000,0
"04/04/08","07:05:58",121964.000,"cc",28315.877,6.00,6,0.100,108201.000,0.200,9586.000,0.300,1862.000,0.500,1728.000,1.000,587.000,5.000,0
"04/04/08","07:06:04",83997.000,"cc",28346.670,6.00,6,0.100,73153.000,0.200,6801.000,0.300,1746.000,0.500,1701.000,1.000,596.000,5.000,0
"04/04/08","07:06:10",67084.000,"cc",28320.828,6.00,6,0.100,57802.000,0.200,5504.000,0.300,1614.000,0.500,1617.000,1.000,547.000,5.000,0
"04/04/08","07:06:16",94078.000,"cc",28306.758,6.00,6,0.100,82521.000,0.200,7425.000,0.300,1779.000,0.500,1772.000,1.000,581.000,5.000,0
"04/04/08","07:06:22",176354.000,"cc",28281.111,6.00,6,0.100,157663.000,0.200,14288.000,0.300,2031.000,0.500,1810.000,1.000,562.000,5.000,0
"04/04/08","07:06:28",132550.000,"cc",28362.139,6.00,6,0.100,118007.000,0.200,10375.000,0.300,1881.000,0.500,1735.000,1.000,552.000,5.000,0
"04/04/08","07:06:34",114918.000,"cc",28287.016,6.00,6,0.100,101867.000,0.200,8944.000,0.300,1805.000,0.500,1711.000,1.000,591.000,5.000,0
"04/04/08","07:06:40",121426.000,"cc",28273.033,6.00,6,0.100,107840.000,0.200,9484.000,0.300,1819.000,0.500,1747.000,1.000,536.000,5.000,0
"04/04/08","07:06:46",135807.000,"cc",28360.340,6.00,6,0.100,121051.000,0.200,10484.000,0.300,1903.000,0.500,1773.000,1.000,596.000,5.000,0
"04/04/08","07:06:52",105429.000,"cc",28296.141,6.00,6,0.100,93034.000,0.200,8278.000,0.300,1778.000,0.500,1740.000,1.000,599.000,5.000,0
"04/04/08","07:06:58",153540.000,"cc",28328.822,6.00,6,0.100,136871.000,0.200,12147.000,0.300,2055.000,0.500,1838.000,1.000,629.000,5.000,0
"04/04/08","07:07:04",197205.000,"cc",28310.174,6.00,6,0.100,176440.000,0.200,16232.000,0.300,2054.000,0.500,1865.000,1.000,614.000,5.000,0
"04/04/08","07:07:10",273602.000,"cc",28334.188,6.00,6,0.100,244767.000,0.200,23827.000,0.300,2504.000,0.500,1873.000,1.000,631.000,5.000,0
"04/04/08","07:07:16",310750.000,"cc",28348.953,6.00,6,0.100,277016.000,0.200,28270.000,0.300,2751.000,0.500,2041.000,1.000,672.000,5.000,0
"04/04/08","07:07:22",170680.000,"cc",28301.363,6.00,6,0.100,152710.000,0.200,13386.000,0.300,2064.000,0.500,1886.000,1.000,634.000,5.000,0
"04/04/08","07:07:28",178596.000,"cc",28292.555,6.00,6,0.100,159806.000,0.200,14224.000,0.300,2093.000,0.500,1870.000,1.000,603.000,5.000,0
"04/04/08","07:07:34",195952.000,"cc",28292.898,6.00,6,0.100,175338.000,0.200,15789.000,0.300,2309.000,0.500,1880.000,1.000,636.000,5.000,0
"04/04/08","07:07:40",177517.000,"cc",28342.701,6.00,6,0.100,158566.000,0.200,14264.000,0.300,2229.000,0.500,1860.000,1.000,598.000,5.000,0
"04/04/08","07:07:46",203313.000,"cc",28300.543,6.00,6,0.100,181838.000,0.200,16647.000,0.300,2297.000,0.500,1944.000,1.000,587.000,5.000,0
"04/04/08","07:07:52",116356.000,"cc",28312.320,6.00,6,0.100,102246.000,0.200,9701.000,0.300,2113.000,0.500,1742.000,1.000,554.000,5.000,0
"04/04/08","07:07:58",130319.000,"cc",28330.311,6.00,6,0.100,115221.000,0.200,10634.000,0.300,2085.000,0.500,1794.000,1.000,585.000,5.000,0
"04/04/08","07:08:04",102907.000,"cc",28297.527,6.00,6,0.100,90127.000,0.200,8493.000,0.300,1977.000,0.500,1755.000,1.000,555.000,5.000,0
"04/04/08","07:08:10",144912.000,"cc",28418.699,6.00,6,0.100,128181.000,0.200,12033.000,0.300,2199.000,0.500,1891.000,1.000,608.000,5.000,0
"04/04/08","07:08:16",123573.000,"cc",28292.514,6.00,6,0.100,108247.000,0.200,10606.000,0.300,2338.000,0.500,1839.000,1.000,543.000,5.000,0
"04/04/08","07:08:22",182231.000,"cc",28293.607,6.00,6,0.100,161192.000,0.200,15683.000,0.300,2593.000,0.500,2015.000,1.000,748.000,5.000,0
"04/04/08","07:08:28",146145.000,"cc",28296.520,6.00,6,0.100,128850.000,0.200,12302.000,0.300,2481.000,0.500,1890.000,1.000,622.000,5.000,0
"04/04/08","07:08:34",143822.000,"cc",28298.289,6.00,6,0.100,126995.000,0.200,11995.000,0.300,2324.000,0.500,1876.000,1.000,632.000,5.000,0
"04/04/08","07:08:40",137051.000,"cc",28327.098,6.00,6,0.100,121088.000,0.200,11134.000,0.300,2304.000,0.500,1894.000,1.000,631.000,5.000,0
"04/04/08","07:08:46",166289.000,"cc",28315.816,6.00,6,0.100,147241.000,0.200,13718.000,0.300,2493.000,0.500,2088.000,1.000,749.000,5.000,0
"04/04/08","07:08:52",163525.000,"cc",28285.623,6.00,6,0.100,144726.000,0.200,13358.000,0.300,2528.000,0.500,2162.000,1.000,751.000,5.000,0
"04/04/08","07:08:58",167820.000,"cc",28326.889,6.00,6,0.100,148677.000,0.200,13754.000,0.300,2422.000,0.500,2208.000,1.000,759.000,5.000,0
"04/04/08","07:09:04",159338.000,"cc",28331.660,6.00,6,0.100,140069.000,0.200,13274.000,0.300,2687.000,0.500,2443.000,1.000,865.000,5.000,0
"04/04/08","07:09:10",132667.000,"cc",28351.348,6.00,6,0.100,115336.000,0.200,11237.000,0.300,2733.000,0.500,2494.000,1.000,867.000,5.000,0
"04/04/08","07:09:16",69359.000,"cc",28281.287,6.00,6,0.100,57519.000,0.200,6374.000,0.300,2341.000,0.500,2340.000,1.000,785.000,5.000,0
"04/04/08","07:09:22",59398.000,"cc",28276.820,6.00,6,0.100,48392.000,0.200,5506.000,0.300,2351.000,0.500,2336.000,1.000,813.000,5.000,0
"04/04/08","07:09:28",42478.000,"cc",28306.334,6.00,6,0.100,33394.000,0.200,4272.000,0.300,2024.000,0.500,2107.000,1.000,681.000,5.000,0
"04/04/08","07:09:34",29517.000,"cc",28375.883,6.00,6,0.100,21825.000,0.200,3331.000,0.300,1876.000,0.500,1860.000,1.000,625.000,5.000,0
"04/04/08","07:09:40",24847.000,"cc",28331.938,6.00,6,0.100,17629.000,0.200,2882.000,0.300,1822.000,0.500,1891.000,1.000,623.000,5.000,0
"04/04/08","07:09:46",25515.000,"cc",28271.967,6.00,6,0.100,16195.000,0.200,3431.000,0.300,2491.000,0.500,2518.000,1.000,880.000,5.000,0
"04/04/08","07:09:52",17698.000,"cc",28280.721,6.00,6,0.100,11173.000,0.200,2372.000,0.300,1703.000,0.500,1839.000,1.000,611.000,5.000,0
"04/04/08","07:09:58",20853.000,"cc",28346.850,6.00,6,0.100,14149.000,0.200,2572.000,0.300,1703.000,0.500,1838.000,1.000,591.000,5.000,0
"04/04/08","07:10:04",19448.000,"cc",28296.748,6.00,6,0.100,13190.000,0.200,2397.000,0.300,1589.000,0.500,1700.000,1.000,572.000,5.000,0
"04/04/08","07:10:10",18855.000,"cc",28380.357,6.00,6,0.100,12318.000,0.200,2351.000,0.300,1732.000,0.500,1835.000,1.000,619.000,5.000,0
"04/04/08","07:10:16",16371.000,"cc",28365.418,6.00,6,0.100,10599.000,0.200,2073.000,0.300,1521.000,0.500,1672.000,1.000,506.000,5.000,0
"04/04/08","07:10:22",16795.000,"cc",28321.188,6.00,6,0.100,10520.000,0.200,2187.000,0.300,1650.000,0.500,1826.000,1.000,612.000,5.000,0
"04/04/08","07:10:28",15556.000,"cc",28303.666,6.00,6,0.100,9610.000,0.200,2053.000,0.300,1541.000,0.500,1781.000,1.000,571.000,5.000,0
"04/04/08","07:10:34",15622.000,"cc",28428.065,6.00,6,0.100,9659.000,0.200,2090.000,0.300,1638.000,0.500,1690.000,1.000,545.000,5.000,0
"04/04/08","07:10:40",15477.000,"cc",28386.533,6.00,6,0.100,9468.000,0.200,2111.000,0.300,1613.000,0.500,1713.000,1.000,572.000,5.000,0
"04/04/08","07:10:46",15434.000,"cc",28348.242,6.00,6,0.100,9533.000,0.200,2153.000,0.300,1533.000,0.500,1669.000,1.000,546.000,5.000,0
"04/04/08","07:10:52",15196.000,"cc",28338.272,6.00,6,0.100,9443.000,0.200,1978.000,0.300,1556.000,0.500,1678.000,1.000,541.000,5.000,0
"04/04/08","07:10:58",15364.000,"cc",28307.822,6.00,6,0.100,9609.000,0.200,2045.000,0.300,1496.000,0.500,1664.000,1.000,550.000,5.000,0
"04/04/08","07:11:04",15496.000,"cc",28407.451,6.00,6,0.100,9684.000,0.200,2126.000,0.300,1517.000,0.500,1671.000,1.000,498.000,5.000,0
"04/04/08","07:11:10",15112.000,"cc",28382.363,6.00,6,0.100,9476.000,0.200,1984.000,0.300,1494.000,0.500,1628.000,1.000,530.000,5.000,0
"04/04/08","07:11:16",15280.000,"cc",28298.648,6.00,6,0.100,9557.000,0.200,1962.000,0.300,1541.000,0.500,1679.000,1.000,541.000,5.000,0
"04/04/08","07:11:22",15669.000,"cc",28299.434,6.00,6,0.100,9720.000,0.200,2036.000,0.300,1567.000,0.500,1758.000,1.000,588.000,5.000,0
"04/04/08","07:11:28",15661.000,"cc",28258.805,6.00,6,0.100,9609.000,0.200,2108.000,0.300,1591.000,0.500,1779.000,1.000,574.000,5.000,0
"04/04/08","07:11:34",15531.000,"cc",28347.104,6.00,6,0.100,9646.000,0.200,2053.000,0.300,1619.000,0.500,1691.000,1.000,522.000,5.000,0
"04/04/08","07:11:40",15377.000,"cc",28358.604,6.00,6,0.100,9530.000,0.200,2110.000,0.300,1571.000,0.500,1599.000,1.000,567.000,5.000,0
"04/04/08","07:11:46",15537.000,"cc",28325.076,6.00,6,0.100,9561.000,0.200,2096.000,0.300,1574.000,0.500,1715.000,1.000,591.000,5.000,0
"04/04/08","07:11:52",15399.000,"cc",28320.106,6.00,6,0.100,9660.000,0.200,2133.000,0.300,1464.000,0.500,1636.000,1.000,506.000,5.000,0
"04/04/08","07:11:58",15268.000,"cc",28339.994,6.00,6,0.100,9556.000,0.200,1938.000,0.300,1555.000,0.500,1663.000,1.000,556.000,5.000,0
"04/04/08","07:12:04",15226.000,"cc",28340.400,6.00,6,0.100,9561.000,0.200,1966.000,0.300,1599.000,0.500,1596.000,1.000,504.000,5.000,0
"04/04/08","07:12:10",15274.000,"cc",28271.375,6.00,6,0.100,9575.000,0.200,1970.000,0.300,1565.000,0.500,1671.000,1.000,493.000,5.000,0
"04/04/08","07:12:16",15498.000,"cc",28195.375,6.00,6,0.100,9722.000,0.200,2053.000,0.300,1560.000,0.500,1655.000,1.000,508.000,5.000,0
"04/04/08","07:12:22",15413.000,"cc",28389.352,6.00,6,0.100,9628.000,0.200,2029.000,0.300,1529.000,0.500,1689.000,1.000,538.000,5.000,0
"04/04/08","07:12:28",15191.000,"cc",28360.836,6.00,6,0.100,9510.000,0.200,2055.000,0.300,1469.000,0.500,1627.000,1.000,530.000,5.000,0
"04/04/08","07:12:34",15479.000,"cc",28302.953,6.00,6,0.100,9704.000,0.200,2032.000,0.300,1469.000,0.500,1726.000,1.000,548.000,5.000,0
"04/04/08","07:12:40",15573.000,"cc",28324.336,6.00,6,0.100,9779.000,0.200,2023.000,0.300,1573.000,0.500,1658.000,1.000,540.000,5.000,0
"04/04/08","07:12:46",15130.000,"cc",28148.988,6.00,6,0.100,9438.000,0.200,2041.000,0.300,1484.000,0.500,1617.000,1.000,550.000,5.000,0
"04/04/08","07:12:52",15479.000,"cc",28343.328,6.00,6,0.100,9658.000,0.200,2039.000,0.300,1524.000,0.500,1729.000,1.000,529.000,5.000,0
"04/04/08","07:12:58",15236.000,"cc",28242.158,6.00,6,0.100,9632.000,0.200,1986.000,0.300,1558.000,0.500,1571.000,1.000,489.000,5.000,0
"04/04/08","07:13:04",15255.000,"cc",28355.557,6.00,6,0.100,9494.000,0.200,2030.000,0.300,1543.000,0.500,1678.000,1.000,510.000,5.000,0
"04/04/08","07:13:10",15753.000,"cc",28353.736,6.00,6,0.100,9799.000,0.200,2133.000,0.300,1553.000,0.500,1715.000,1.000,553.000,5.000,0
"04/04/08","07:13:16",15564.000,"cc",28210.309,6.00,6,0.100,9746.000,0.200,2051.000,0.300,1573.000,0.500,1645.000,1.000,549.000,5.000,0
"04/04/08","07:13:22",15895.000,"cc",28340.697,6.00,6,0.100,9881.000,0.200,2108.000,0.300,1638.000,0.500,1717.000,1.000,551.000,5.000,0
"04/04/08","07:13:28",15234.000,"cc",28300.945,6.00,6,0.100,9553.000,0.200,2044.000,0.300,1502.000,0.500,1607.000,1.000,528.000,5.000,0
"04/04/08","07:13:34",15503.000,"cc",28317.449,6.00,6,0.100,9760.000,0.200,2010.000,0.300,1560.000,0.500,1633.000,1.000,540.000,5.000,0
"04/04/08","07:13:40",15374.000,"cc",28414.440,6.00,6,0.100,9621.000,0.200,2014.000,0.300,1479.000,0.500,1692.000,1.000,568.000,5.000,0
"04/04/08","07:13:46",14956.000,"cc",28345.492,6.00,6,0.100,9315.000,0.200,2012.000,0.300,1549.000,0.500,1562.000,1.000,518.000,5.000,0
"04/04/08","07:13:52",15155.000,"cc",28305.846,6.00,6,0.100,9618.000,0.200,1982.000,0.300,1482.000,0.500,1563.000,1.000,510.000,5.000,0
"04/04/08","07:13:58",15055.000,"cc",28250.385,6.00,6,0.100,9453.000,0.200,1998.000,0.300,1487.000,0.500,1589.000,1.000,528.000,5.000,0
"04/04/08","07:14:04",14952.000,"cc",28307.158,6.00,6,0.100,9466.000,0.200,1949.000,0.300,1461.000,0.500,1543.000,1.000,533.000,5.000,0
"04/04/08","07:14:10",15366.000,"cc",28324.164,6.00,6,0.100,9611.000,0.200,2059.000,0.300,1583.000,0.500,1605.000,1.000,508.000,5.000,0
"04/04/08","07:14:16",15338.000,"cc",28297.553,6.00,6,0.100,9623.000,0.200,2036.000,0.300,1572.000,0.500,1616.000,1.000,491.000,5.000,0
"04/04/08","07:14:22",15499.000,"cc",28374.414,6.00,6,0.100,9710.000,0.200,2043.000,0.300,1543.000,0.500,1659.000,1.000,544.000,5.000,0
"04/04/08","07:14:28",15189.000,"cc",28277.451,6.00,6,0.100,9567.000,0.200,2019.000,0.300,1494.000,0.500,1579.000,1.000,530.000,5.000,0
"04/04/08","07:14:34",15481.000,"cc",28363.975,6.00,6,0.100,9633.000,0.200,2099.000,0.300,1562.000,0.500,1649.000,1.000,538.000,5.000,0
"04/04/08","07:14:40",15537.000,"cc",28322.088,6.00,6,0.100,9769.000,0.200,2029.000,0.300,1591.000,0.500,1613.000,1.000,535.000,5.000,0
"04/04/08","07:14:46",15106.000,"cc",28221.785,6.00,6,0.100,9477.000,0.200,1982.000,0.300,1503.000,0.500,1620.000,1.000,524.000,5.000,0
"04/04/08","07:14:52",15373.000,"cc",28277.604,6.00,6,0.100,9559.000,0.200,2091.000,0.300,1503.000,0.500,1678.000,1.000,542.000,5.000,0
"04/04/08","07:14:58",15581.000,"cc",28298.453,6.00,6,0.100,9711.000,0.200,2100.000,0.300,1535.000,0.500,1655.000,1.000,580.000,5.000,0
"04/04/08","07:15:04",15566.000,"cc",28384.137,6.00,6,0.100,9720.000,0.200,2103.000,0.300,1580.000,0.500,1648.000,1.000,515.000,5.000,0
"04/04/08","07:15:10",15449.000,"cc",28275.668,6.00,6,0.100,9813.000,0.200,1962.000,0.300,1527.000,0.500,1642.000,1.000,505.000,5.000,0
"04/04/08","07:15:16",15074.000,"cc",28270.625,6.00,6,0.100,9375.000,0.200,2015.000,0.300,1523.000,0.500,1604.000,1.000,557.000,5.000,0
"04/04/08","07:15:22",15143.000,"cc",28347.578,6.00,6,0.100,9564.000,0.200,1980.000,0.300,1507.000,0.500,1589.000,1.000,503.000,5.000,0
"04/04/08","07:15:28",14718.000,"cc",28295.994,6.00,6,0.100,9184.000,0.200,2046.000,0.300,1445.000,0.500,1494.000,1.000,549.000,5.000,0
"04/04/08","07:15:34",15167.000,"cc",28379.990,6.00,6,0.100,9508.000,0.200,2038.000,0.300,1488.000,0.500,1581.000,1.000,552.000,5.000,0
"04/04/08","07:15:40",15438.000,"cc",28304.613,6.00,6,0.100,9656.000,0.200,2076.000,0.300,1487.000,0.500,1657.000,1.000,562.000,5.000,0
"04/04/08","07:15:46",15297.000,"cc",28298.090,6.00,6,0.100,9665.000,0.200,1923.000,0.300,1502.000,0.500,1638.000,1.000,569.000,5.000,0
"04/04/08","07:15:52",15187.000,"cc",28318.643,6.00,6,0.100,9648.000,0.200,1908.000,0.300,1474.000,0.500,1626.000,1.000,531.000,5.000,0
"04/04/08","07:15:58",15109.000,"cc",28291.666,6.00,6,0.100,9602.000,0.200,1956.000,0.300,1451.000,0.500,1601.000,1.000,499.000,5.000,0
"04/04/08","07:16:04",15212.000,"cc",28324.301,6.00,6,0.100,9613.000,0.200,1998.000,0.300,1521.000,0.500,1580.000,1.000,500.000,5.000,0
"04/04/08","07:16:10",15052.000,"cc",28430.604,6.00,6,0.100,9523.000,0.200,1956.000,0.300,1467.000,0.500,1555.000,1.000,551.000,5.000,0
"04/04/08","07:16:16",15340.000,"cc",28361.121,6.00,6,0.100,9555.000,0.200,2052.000,0.300,1533.000,0.500,1648.000,1.000,552.000,5.000,0